• In Netherlands
  • List of Countries
  • For 7 days
  • Water Temperature
  • Satellite Maps
  • Weather Map
  • Weather Widgets
  • user-avatar
    Login

    Hourly Weather Polotsk

    Today, 28 April, Friday

    Time Temperature Precipitation Wind Pressure Humidity
    00:00 +3°C° 0 mm 1 mps 749 mmHg 85%
    01:00 +3°C° 0 mm 1 mps 749 mmHg 86%
    02:00 +2°C° 0 mm 2 mps 749 mmHg 89%
    03:00 +3°C° 0 mm 1 mps 749 mmHg 90%
    04:00 +3°C° 0 mm 1 mps 749 mmHg 90%
    05:00 +2°C° 0 mm 1 mps 750 mmHg 91%
    06:00 +4°C° 0 mm 1 mps 750 mmHg 85%
    07:00 +5°C° 0 mm 2 mps 750 mmHg 79%
    08:00 +7°C° 0 mm 3 mps 750 mmHg 73%
    09:00 +8°C° 0 mm 3 mps 750 mmHg 71%
    10:00 +7°C° 0 mm 4 mps 750 mmHg 68%
    11:00 +8°C° 0 mm 4 mps 749 mmHg 65%
    12:00 +7°C° 0.2 mm 4 mps 749 mmHg 69%
    13:00 +7°C° 0.2 mm 4 mps 749 mmHg 73%
    14:00 +7°C° 0.2 mm 4 mps 749 mmHg 77%
    15:00 +6°C° 1 mm 5 mps 748 mmHg 80%
    16:00 +4°C° 1 mm 6 mps 748 mmHg 84%
    17:00 +4°C° 1 mm 7 mps 747 mmHg 87%
    18:00 +4°C° 1.3 mm 7 mps 747 mmHg 89%
    19:00 +3°C° 1.3 mm 7 mps 746 mmHg 91%
    20:00 +3°C° 1.3 mm 7 mps 745 mmHg 93%
    21:00 +4°C° 1.9 mm 6 mps 744 mmHg 94%
    22:00 +4°C° 1.9 mm 6 mps 743 mmHg 95%
    23:00 +4°C° 1.9 mm 6 mps 743 mmHg 96%

    Tomorrow, 29 April, Saturday

    Time Temperature Precipitation Wind Pressure Humidity
    00:00 +5°C° 1.7 mm 5 mps 742 mmHg 97%
    01:00 +6°C° 1.7 mm 4 mps 742 mmHg 97%
    02:00 +6°C° 1.7 mm 4 mps 741 mmHg 97%
    03:00 +7°C° 0.1 mm 3 mps 741 mmHg 98%
    04:00 +8°C° 0.1 mm 3 mps 741 mmHg 98%
    05:00 +9°C° 0.1 mm 3 mps 741 mmHg 98%
    06:00 +10°C° 0.1 mm 4 mps 741 mmHg 97%
    07:00 +11°C° 0.1 mm 4 mps 741 mmHg 96%
    08:00 +12°C° 0.1 mm 5 mps 740 mmHg 95%
    09:00 +12°C° 0.1 mm 5 mps 741 mmHg 94%
    10:00 +13°C° 0.1 mm 5 mps 741 mmHg 93%
    11:00 +13°C° 0.1 mm 5 mps 741 mmHg 92%
    12:00 +14°C° 0.1 mm 6 mps 742 mmHg 86%
    13:00 +15°C° 0.1 mm 6 mps 742 mmHg 81%
    14:00 +15°C° 0.1 mm 7 mps 743 mmHg 76%
    15:00 +14°C° 0 mm 7 mps 744 mmHg 77%
    16:00 +11°C° 0 mm 7 mps 744 mmHg 77%
    17:00 +10°C° 0 mm 6 mps 745 mmHg 78%
    18:00 +9°C° 0 mm 6 mps 745 mmHg 80%
    19:00 +7°C° 0 mm 5 mps 746 mmHg 82%
    20:00 +6°C° 0 mm 4 mps 746 mmHg 84%
    21:00 +6°C° 0 mm 4 mps 747 mmHg 85%
    22:00 +5°C° 0 mm 4 mps 747 mmHg 85%
    23:00 +5°C° 0 mm 4 mps 748 mmHg 86%

    Day after tomorrow, 30 April, Sunday

    Time Temperature Precipitation Wind Pressure Humidity
    00:00 +5°C° 0.1 mm 4 mps 748 mmHg 86%
    01:00 +5°C° 0.1 mm 3 mps 748 mmHg 87%
    02:00 +4°C° 0.1 mm 3 mps 749 mmHg 88%
    03:00 +4°C° 0 mm 3 mps 749 mmHg 88%
    04:00 +4°C° 0 mm 3 mps 749 mmHg 88%
    05:00 +3°C° 0 mm 3 mps 750 mmHg 89%
    06:00 +4°C° 0 mm 3 mps 750 mmHg 86%
    07:00 +4°C° 0 mm 3 mps 751 mmHg 83%
    08:00 +4°C° 0 mm 3 mps 751 mmHg 80%
    09:00 +5°C° 0 mm 3 mps 752 mmHg 76%
    10:00 +7°C° 0 mm 3 mps 752 mmHg 71%
    11:00 +8°C° 0 mm 3 mps 752 mmHg 67%
    12:00 +8°C° 0 mm 3 mps 752 mmHg 65%
    13:00 +9°C° 0 mm 3 mps 753 mmHg 63%
    14:00 +10°C° 0 mm 3 mps 753 mmHg 61%
    15:00 +10°C° 0 mm 3 mps 753 mmHg 64%
    16:00 +9°C° 0 mm 3 mps 753 mmHg 66%
    17:00 +9°C° 0 mm 3 mps 753 mmHg 68%
    18:00 +7°C° 0 mm 3 mps 754 mmHg 72%
    19:00 +5°C° 0 mm 3 mps 754 mmHg 76%
    20:00 +5°C° 0 mm 2 mps 754 mmHg 80%
    21:00 +4°C° 0 mm 3 mps 754 mmHg 79%
    22:00 +3°C° 0 mm 3 mps 754 mmHg 79%
    23:00 +3°C° 0 mm 3 mps 754 mmHg 79%

    1 May, Monday

    Time Temperature Precipitation Wind Pressure Humidity
    00:00 +3°C° 0 mm 3 mps 754 mmHg 79%
    01:00 +3°C° 0 mm 4 mps 754 mmHg 79%
    02:00 +3°C° 0 mm 4 mps 754 mmHg 80%
    03:00 +1°C° 0 mm 4 mps 754 mmHg 80%
    04:00 +1°C° 0 mm 4 mps 754 mmHg 80%
    05:00 +1°C° 0 mm 5 mps 754 mmHg 81%
    06:00 +2°C° 0.4 mm 5 mps 754 mmHg 81%
    07:00 +2°C° 0.4 mm 5 mps 754 mmHg 81%
    08:00 +2°C° 0.4 mm 5 mps 754 mmHg 82%
    09:00 +3°C° 0.7 mm 6 mps 753 mmHg 83%
    10:00 +3°C° 0.7 mm 6 mps 753 mmHg 84%
    11:00 +3°C° 0.7 mm 6 mps 753 mmHg 86%
    12:00 +4°C° 0.2 mm 6 mps 753 mmHg 86%
    13:00 +4°C° 0.2 mm 6 mps 752 mmHg 86%
    14:00 +4°C° 0.2 mm 7 mps 752 mmHg 86%
    15:00 +4°C° 0.5 mm 6 mps 752 mmHg 88%
    16:00 +5°C° 0.5 mm 5 mps 751 mmHg 90%
    17:00 +5°C° 0.5 mm 5 mps 751 mmHg 92%
    18:00 +5°C° 0.3 mm 5 mps 751 mmHg 93%
    19:00 +5°C° 0.3 mm 5 mps 751 mmHg 94%
    20:00 +5°C° 0.3 mm 5 mps 750 mmHg 95%
    21:00 +5°C° 0.2 mm 4 mps 750 mmHg 96%
    22:00 +5°C° 0.2 mm 4 mps 750 mmHg 96%
    23:00 +5°C° 0.2 mm 4 mps 750 mmHg 96%

    2 May, Tuesday

    Time Temperature Precipitation Wind Pressure Humidity
    00:00 +5°C° 0.1 mm 4 mps 750 mmHg 97%
    01:00 +5°C° 0.1 mm 3 mps 749 mmHg 97%
    02:00 +5°C° 0.1 mm 3 mps 749 mmHg 98%
    03:00 +5°C° 0.1 mm 3 mps 749 mmHg 97%
    04:00 +5°C° 0.1 mm 3 mps 749 mmHg 97%
    05:00 +5°C° 0.1 mm 3 mps 749 mmHg 97%
    06:00 +5°C° 0 mm 3 mps 749 mmHg 96%
    07:00 +7°C° 0 mm 3 mps 749 mmHg 95%
    08:00 +6°C° 0 mm 4 mps 749 mmHg 94%
    09:00 +8°C° 0 mm 3 mps 749 mmHg 92%
    10:00 +8°C° 0 mm 3 mps 749 mmHg 90%
    11:00 +9°C° 0 mm 3 mps 750 mmHg 88%
    12:00 +9°C° 0 mm 3 mps 750 mmHg 87%
    13:00 +10°C° 0 mm 3 mps 750 mmHg 86%
    14:00 +10°C° 0 mm 3 mps 750 mmHg 85%
    15:00 +10°C° 0 mm 3 mps 750 mmHg 85%
    16:00 +10°C° 0 mm 3 mps 750 mmHg 85%
    17:00 +10°C° 0 mm 3 mps 750 mmHg 85%
    18:00 +9°C° 0 mm 3 mps 750 mmHg 87%
    19:00 +8°C° 0 mm 2 mps 750 mmHg 89%
    20:00 +8°C° 0 mm 2 mps 750 mmHg 92%
    21:00 +7°C° 0 mm 2 mps 750 mmHg 92%
    22:00 +7°C° 0 mm 2 mps 751 mmHg 93%
    23:00 +6°C° 0 mm 2 mps 751 mmHg 94%

    3 May, Wednesday

    Time Temperature Precipitation Wind Pressure Humidity
    00:00 +6°C° 0 mm 2 mps 751 mmHg 94%
    01:00 +5°C° 0 mm 2 mps 751 mmHg 94%
    02:00 +4°C° 0 mm 3 mps 751 mmHg 94%
    03:00 +4°C° 0 mm 3 mps 751 mmHg 94%
    04:00 +4°C° 0 mm 3 mps 751 mmHg 94%
    05:00 +3°C° 0 mm 3 mps 751 mmHg 94%
    06:00 +4°C° 0 mm 4 mps 751 mmHg 90%
    07:00 +5°C° 0 mm 4 mps 751 mmHg 87%
    08:00 +6°C° 0 mm 4 mps 752 mmHg 84%
    09:00 +7°C° 0 mm 5 mps 752 mmHg 80%
    10:00 +8°C° 0 mm 5 mps 752 mmHg 76%
    11:00 +9°C° 0 mm 5 mps 752 mmHg 72%
    12:00 +10°C° 0 mm 5 mps 752 mmHg 70%
    13:00 +10°C° 0 mm 5 mps 752 mmHg 68%
    14:00 +12°C° 0 mm 5 mps 752 mmHg 66%
    15:00 +10°C° 0 mm 5 mps 752 mmHg 67%
    16:00 +10°C° 0 mm 5 mps 752 mmHg 69%
    17:00 +11°C° 0 mm 4 mps 752 mmHg 71%
    18:00 +10°C° 0 mm 4 mps 752 mmHg 74%
    19:00 +7°C° 0 mm 4 mps 752 mmHg 78%
    20:00 +6°C° 0 mm 4 mps 752 mmHg 82%
    21:00 +5°C° 0 mm 4 mps 753 mmHg 82%
    22:00 +5°C° 0 mm 4 mps 753 mmHg 83%
    23:00 +4°C° 0 mm 4 mps 753 mmHg 83%
    Show more